RH
18 15 14 13 13 12 12 12 12 12 11 11 10 10 10 10 9 8 6 7 8 8 12 15 17 18 21 16 20 8 8 8 8 8 8 8 8 8 8 8 9 10 10 9
18 16 14 14 14 13 13 14 14 13 12 11 10 10 9 8 7 7 7 7 8 11 14 15 17 21 16 20 13 8 9 9 9 9 8 8 8 9 9 9 9 9 9 9
16 14 14 15 15 15 15 14 14 12 11 10 10 11 9 8 7 7 8 10 13 15 18 19 20 14 18 19 10 9 10 11 10 10 10 10 10 10 10 11 13 15 19 21
16 16 16 16 16 16 15 14 13 11 10 22 11 13 11 8 7 7 9 12 16 17 18 15 12 12 19 14 10 10 11 11 10 12 13 13 14 16 18 21 26 29 29 29
17 17 17 17 16 15 14 13 11 10 11 14 13 18 11 7 7 8 10 16 18 18 15 11 11 14 14 11 10 11 12 12 15 18 17 16 17 17 18 20 24 31 35 38
16 17 17 15 14 12 12 11 12 13 14 43 16 18 16 7 6 6 8 14 22 20 15 11 9 9 9 10 13 14 16 20 22 20 18 19 19 20 21 25 27 23 22 26
17 15 13 13 13 13 14 15 34 60 50 45 24 24 7 8 8 10 13 24 26 24 19 16 14 15 17 20 20 22 26 25 23 23 22 23 34 39 38 36 34 34 33 32
15 24 15 16 15 15 17 16 29 39 27 21 15 27 10 9 8 7 15 21 25 31 30 30 32 34 33 29 29 28 27 24 24 27 28 35 42 41 38 34 24 20 23 25
14 15 17 17 18 19 20 19 17 16 21 33 23 10 8 8 9 11 13 17 23 28 30 31 35 35 31 30 28 28 27 28 32 32 34 42 43 40 38 29 17 14 16 19
14 15 16 17 18 18 17 19 29 22 31 23 18 12 6 8 11 12 15 18 21 22 22 22 19 19 22 25 29 29 28 35 38 37 42 45 43 40 37 21 13 12 11 11
14 13 17 15 14 15 20 21 18 19 20 18 13 22 8 9 9 16 18 14 14 14 17 17 18 20 23 27 30 31 32 38 44 47 49 48 46 44 33 18 10 9 8 7
13 14 14 15 14 17 18 20 22 26 27 36 33 20 7 9 11 10 14 21 30 26 18 20 32 29 28 32 34 37 39 44 49 52 52 50 50 46 43 24 10 8 7 6
12 12 14 15 14 15 18 16 18 19 24 41 20 14 10 10 12 18 26 44 44 52 49 46 38 34 38 42 42 46 52 53 56 59 57 54 54 52 41 20 12 8 8 7
9 10 10 17 9 10 11 10 11 18 34 26 26 16 19 22 38 51 52 51 50 55 55 48 44 41 45 49 50 55 60 58 60 61 58 59 57 46 30 17 11 10 9 9
9 10 10 10 13 16 21 27 32 33 31 40 34 43 42 52 54 52 51 52 52 54 54 53 52 49 51 53 56 62 64 61 62 61 64 60 46 35 19 14 12 12 11 12
18 22 28 41 54 61 64 61 64 63 58 63 54 51 56 53 57 51 50 48 52 53 46 48 53 55 58 60 63 67 64 65 65 70 69 60 57 39 16 15 14 14 16 21
48 60 73 78 69 70 64 47 51 52 54 58 66 63 59 56 56 55 54 51 49 48 48 47 51 55 61 66 68 67 68 69 73 74 70 67 60 38 21 17 16 16 20 33
84 81 80 78 73 73 53 54 59 62 60 59 62 61 58 58 60 56 51 52 51 52 59 60 59 59 64 69 75 77 80 81 83 81 76 62 44 33 23 20 19 22 30 39
86 94 86 81 86 66 51 55 58 56 55 55 55 58 63 66 59 58 61 66 71 72 72 73 73 73 75 78 83 86 89 88 84 76 63 60 50 32 22 23 32 44 49 53
63 81 95 93 92 72 69 64 63 63 74 70 70 69 68 66 71 76 79 81 82 85 86 88 90 91 94 96 96 95 92 87 85 65 77 72 48 32 34 38 41 46 50 58
65 73 93 98 96 88 75 75 76 80 77 74 74 75 75 80 92 90 89 87 84 78 74 86 93 91 90 90 88 87 83 95 76 61 71 62 34 36 55 59 63 59 58 56
77 75 82 99 100 92 75 75 78 76 86 93 94 94 95 96 93 84 74 70 66 56 49 45 45 51 65 94 100 98 99 90 70 68 54 38 41 47 58 71 67 63 62 58
88 79 78 87 84 83 89 95 97 97 97 97 96 92 82 72 69 61 50 40 31 23 20 21 24 34 46 52 55 54 64 59 49 45 52 60 67 74 79 77 72 70 66 64
94 92 97 98 88 92 97 98 98 97 93 94 93 79 62 57 48 38 31 26 24 22 21 22 27 40 62 69 67 62 58 50 47 53 62 75 80 80 80 76 64 52 46 39
97 97 95 96 96 97 98 96 94 89 70 62 58 51 52 46 36 34 37 43 49 54 48 44 49 65 82 88 80 70 58 56 52 55 57 61 60 54 49 45 42 40 38 34
93 90 97 96 96 94 90 86 73 75 80 56 49 44 38 43 41 38 36 35 34 35 46 57 63 64 63 68 66 57 52 54 59 61 59 58 57 56 53 46 39 29 23 21
Wind_Speed
24 21 19 18 17 11 11 10 10 11 12 14 17 19 16 20 22 24 25 24 23 20 18 17 15 12 11 9 9 9 10 13 12 12 13 13 12 11 11 13 14 15 17 18
22 19 18 16 14 12 10 8 9 10 12 15 18 20 22 21 19 18 19 20 18 14 13 13 11 10 9 9 9 8 8 7 10 11 12 12 12 13 14 15 17 18 19 20
20 18 16 14 12 10 8 8 9 10 13 16 20 21 15 13 19 20 19 17 14 12 10 10 10 9 9 10 9 9 9 11 13 15 15 15 14 15 16 17 19 20 20 22
11 15 14 11 9 8 7 8 9 10 10 6 11 10 14 19 17 17 16 14 12 10 9 9 9 10 10 11 10 11 12 15 16 17 18 18 17 17 17 17 18 18 19 20
10 13 12 10 8 7 7 7 9 11 13 14 15 8 9 13 15 14 13 11 10 10 10 10 11 11 12 12 12 13 15 17 19 20 20 21 21 20 20 21 21 23 24 25
10 12 9 8 7 7 7 7 11 14 12 4 10 6 5 7 7 9 9 10 10 11 11 12 11 11 12 13 13 16 18 20 21 22 23 23 23 22 22 24 24 25 26 29
9 8 7 7 7 6 7 5 3 2 1 3 4 6 8 11 13 11 9 11 12 12 13 12 12 12 13 14 15 17 19 20 22 24 24 23 21 20 21 22 23 24 24 25
8 4 9 9 9 6 4 5 3 4 3 3 8 8 5 10 13 12 11 13 13 14 14 14 14 14 15 16 17 19 19 21 24 24 23 20 19 20 22 25 26 26 25 25
7 5 7 7 7 7 4 7 7 4 6 3 6 9 13 8 6 9 10 10 12 14 15 15 15 15 16 17 18 19 21 24 26 24 22 22 21 23 26 28 28 27 27 27
6 4 9 9 8 10 10 7 3 5 3 4 5 8 9 5 2 3 5 7 10 13 13 14 13 14 17 19 20 20 23 26 25 24 22 23 24 27 30 31 29 29 28 28
7 8 6 8 9 10 11 11 9 7 5 3 4 4 4 4 10 2 1 6 12 14 14 13 16 19 19 21 23 24 26 28 24 22 24 24 26 28 32 33 31 30 30 29
8 6 5 9 10 12 12 12 12 5 5 7 2 11 15 12 5 4 14 20 18 14 16 22 24 23 24 24 25 27 28 28 24 25 25 26 29 32 36 35 32 31 30 29
4 4 2 3 6 11 13 13 15 16 13 9 5 6 3 5 20 25 28 28 22 22 25 26 25 24 26 27 28 29 28 27 26 27 28 31 34 37 39 37 34 32 31 30
5 7 9 6 7 10 12 14 14 16 11 15 25 28 25 23 29 30 27 25 30 30 26 26 26 26 28 29 30 31 30 30 30 31 32 35 39 42 41 38 35 33 32 32
9 10 13 14 16 19 22 22 22 27 28 21 30 23 31 27 26 21 19 20 21 20 23 27 26 28 30 31 33 33 33 32 32 33 36 40 42 42 41 37 35 33 33 33
12 12 13 18 18 21 25 25 26 30 32 36 36 35 23 19 25 20 20 21 24 22 20 21 25 26 29 32 33 35 35 34 34 36 41 44 44 43 40 37 35 34 33 33
15 13 10 7 10 13 20 18 14 13 16 21 25 19 23 27 21 24 26 26 22 20 18 16 17 22 26 30 34 36 36 37 38 41 46 46 45 43 42 38 36 34 34 34
20 16 13 10 14 5 7 9 9 12 16 17 20 24 21 17 24 27 25 18 11 8 15 18 21 23 28 32 35 37 39 42 44 47 48 48 46 41 36 34 34 34 35 35
25 21 9 6 7 19 19 21 17 15 16 15 18 19 20 21 14 10 7 10 17 22 23 22 23 26 31 36 39 41 43 45 45 46 48 46 43 38 35 34 33 33 34 34
14 21 17 9 6 5 8 10 10 15 16 21 22 23 21 15 14 15 21 24 26 26 27 28 30 33 36 40 43 45 48 46 46 47 43 40 39 37 35 34 33 33 33 32
12 14 20 18 12 14 19 21 21 11 14 19 20 20 20 20 23 29 32 35 38 41 42 42 42 43 45 46 45 41 44 43 45 42 40 41 40 37 34 34 34 35 35 37
13 10 9 11 10 12 15 17 14 17 18 25 26 25 28 31 37 41 41 41 41 40 40 40 40 39 38 38 40 42 40 39 41 40 40 39 37 38 38 38 37 37 38 38
18 19 18 14 18 25 26 25 26 29 26 26 32 40 44 40 37 38 38 38 38 38 38 37 37 37 38 39 40 39 37 36 38 39 40 40 38 38 38 38 38 38 39 41
25 24 29 28 34 35 34 29 24 25 33 29 33 37 38 37 36 36 36 37 37 37 38 39 40 41 39 37 38 39 37 39 41 40 40 40 40 39 39 40 41 43 43 43
25 25 26 31 32 28 27 29 26 28 34 35 37 35 33 35 37 37 36 35 35 35 36 37 37 38 39 41 42 39 40 39 41 42 43 43 42 42 43 43 45 48 49 52
34 31 29 30 25 26 26 27 31 33 35 34 33 34 33 32 31 32 33 34 34 34 34 35 36 39 39 39 39 38 38 40 42 45 46 48 51 53 54 54 55 53 55 54
Wind_Direction
167 170 174 180 189 200 210 217 230 245 256 266 268 273 272 277 285 290 290 288 286 283 279 273 269 267 268 267 275 293 312 318 325 326 324 325 323 317 310 305 304 306 307 309
167 174 176 183 193 206 218 235 252 266 274 281 283 283 283 282 283 282 282 282 281 277 270 264 263 260 253 257 272 287 305 323 337 340 337 331 322 315 311 309 306 306 306 306
172 173 178 185 196 208 224 241 260 272 287 290 297 298 287 287 295 288 283 280 278 270 259 254 254 249 247 255 263 277 283 301 312 317 319 318 315 313 310 310 310 310 312 311
177 170 176 185 198 210 233 248 266 280 294 279 300 291 287 298 285 279 277 274 267 261 250 247 247 246 249 255 265 272 282 294 303 308 308 309 310 308 305 304 306 310 317 322
172 164 174 190 206 219 245 261 276 285 286 291 285 267 283 288 289 288 278 262 254 249 247 244 243 244 246 253 262 272 284 293 299 304 307 309 309 308 304 302 301 303 305 309
167 174 183 202 213 230 250 273 288 285 279 254 253 238 281 281 286 287 275 260 248 248 245 243 244 246 251 259 269 280 291 300 305 309 311 312 313 313 311 311 309 305 304 305
158 173 189 198 214 233 245 273 299 298 232 277 254 272 260 273 289 290 268 251 250 248 246 246 249 252 260 268 277 288 297 302 307 310 312 313 315 316 317 316 314 311 309 308
179 187 208 219 226 232 226 213 232 268 265 331 288 249 264 285 297 290 268 252 250 250 250 252 257 263 268 276 285 292 297 304 308 307 305 305 308 314 320 321 319 314 310 309
182 200 205 219 222 218 229 217 233 245 283 281 244 268 289 297 314 278 270 268 263 261 259 262 267 271 274 279 283 287 298 306 306 301 298 301 306 315 322 323 321 317 314 312
203 194 218 227 233 236 225 216 192 216 258 257 247 273 246 286 348 333 275 266 270 270 270 273 273 277 280 281 282 287 302 308 304 298 299 304 306 313 321 324 322 319 317 315
215 222 226 221 226 229 226 222 220 219 219 266 295 250 232 279 314 290 13 325 308 291 274 272 284 278 277 280 282 285 299 308 303 299 302 305 310 317 325 326 324 319 317 316
219 222 225 232 240 237 234 228 220 227 223 221 259 281 285 277 173 307 322 320 314 288 277 279 283 278 270 272 278 285 296 303 296 299 301 307 314 320 325 325 321 317 314 313
210 222 227 277 265 254 248 249 241 242 257 241 254 266 256 261 304 304 303 302 291 290 281 278 277 274 270 271 277 287 292 297 296 302 307 312 317 321 322 320 315 312 310 307
274 256 242 261 278 286 270 269 265 248 238 248 243 271 273 285 293 300 292 280 277 279 271 270 270 270 270 272 280 287 292 298 299 304 308 313 317 319 319 316 312 308 305 304
272 268 270 271 275 277 276 274 270 258 268 247 279 277 293 295 300 298 295 284 278 279 279 271 266 267 271 274 280 287 294 296 298 302 308 312 315 317 315 311 307 304 301 300
263 267 272 277 277 278 278 277 270 269 267 263 274 283 294 297 298 296 299 294 284 282 280 275 265 264 271 275 280 285 288 291 296 301 307 311 312 314 312 309 305 301 299 297
264 266 278 264 274 287 286 281 265 273 276 276 270 281 284 285 280 294 297 288 280 283 286 286 279 275 272 273 276 281 285 289 294 299 304 307 308 309 308 304 301 298 295 293
262 265 266 274 288 245 258 255 262 287 281 272 276 277 278 278 292 298 297 289 276 288 303 299 289 276 270 272 276 281 287 292 296 303 305 307 308 308 303 297 293 291 289 289
255 254 259 260 249 280 277 271 278 279 272 266 270 270 278 290 283 281 272 284 296 302 300 295 285 275 272 274 278 282 285 290 297 300 302 304 306 304 300 296 292 288 287 287
250 245 230 245 258 267 274 278 275 274 277 274 275 278 276 262 257 264 281 296 300 300 298 294 289 284 280 278 281 287 293 295 296 298 300 305 306 301 297 293 291 290 289 287
248 245 232 240 255 269 272 269 274 268 271 270 273 273 270 277 285 288 295 299 299 298 295 292 290 291 290 289 290 290 291 290 296 300 299 303 301 297 295 294 294 292 289 288
264 258 245 221 237 261 274 276 259 270 281 286 273 271 281 291 298 302 302 300 298 296 294 291 289 287 285 286 285 289 291 292 296 296 296 295 292 291 290 290 290 291 293 293
262 255 260 242 262 275 279 274 278 288 285 281 293 298 301 304 304 302 299 297 296 295 295 293 291 289 291 290 291 293 294 293 293 295 294 294 291 290 290 289 290 291 291 291
256 257 262 270 269 272 277 282 284 286 302 302 300 303 305 302 300 299 299 298 297 296 295 293 292 290 289 289 294 296 294 295 295 295 294 292 291 289 287 287 287 287 286 286
264 271 273 273 273 273 276 292 301 300 300 300 301 300 300 300 301 302 301 301 301 301 299 295 291 290 289 289 291 289 290 290 290 289 289 289 288 288 288 286 287 287 287 290
276 279 273 275 281 284 286 291 290 288 288 291 295 300 303 307 309 308 307 307 307 303 299 296 294 292 290 286 285 284 284 285 285 285 286 286 287 288 290 291 289 287 289 288